Theta_e
333 333 334 334 334 334 333 333 331 331 332 331 330 330 330 331 330 331 331 329 327 329 329 329 329 327 328 328 329 329 328 329 332 332 331 330 328 326 325 323 323 323 325 326 326 328 328 327 327 327 326 325 325 325 324 325 327 326 325 325 323 318 313 310 306 304 302 302 301 301 304 308 311 311 311 312 314 317 318 318 318 318 318 318 318
333 333 334 334 333 334 333 333 331 331 332 331 330 330 330 331 331 330 330 330 329 330 329 329 329 329 328 328 329 329 328 329 331 332 332 330 328 327 326 324 323 323 325 325 324 327 329 327 326 326 326 326 325 325 324 325 326 326 328 328 326 322 318 313 309 306 304 302 301 300 301 304 305 306 307 308 311 314 315 315 316 318 317 317 317
335 334 334 334 333 333 333 333 332 332 332 332 332 331 331 330 330 330 329 329 330 330 329 327 327 328 329 329 329 328 327 329 331 332 331 330 329 329 327 325 323 323 324 324 322 326 328 327 326 325 325 325 326 326 324 324 325 325 327 329 327 325 322 317 313 309 305 303 302 301 300 301 303 304 304 305 307 310 311 311 313 316 317 316 317
335 334 334 334 334 333 333 333 333 332 332 332 332 332 331 330 330 329 329 329 330 330 328 325 326 328 329 329 329 328 327 328 330 332 331 330 329 329 327 325 324 324 324 324 323 326 328 327 326 324 322 324 325 325 324 324 324 324 326 328 328 327 325 320 316 312 308 305 303 301 301 302 303 304 305 305 306 311 313 311 310 314 317 317 317
334 334 333 333 333 334 334 333 333 333 332 332 332 331 331 331 330 329 329 329 330 330 328 324 325 327 327 328 328 327 327 326 329 331 331 330 329 329 328 326 325 325 324 325 325 325 327 328 328 324 322 324 324 324 325 325 325 324 325 327 328 327 326 323 319 317 313 308 305 301 302 305 306 307 308 305 305 309 312 311 310 311 315 317 317
334 334 333 333 333 334 334 333 333 332 332 331 331 331 331 331 330 329 329 330 329 329 327 324 325 326 326 327 327 327 327 326 327 330 331 331 330 329 328 327 327 326 325 326 326 325 325 327 329 327 325 325 324 323 325 325 324 324 325 325 325 326 326 325 323 320 317 312 309 303 303 309 311 308 306 305 305 305 307 311 312 310 312 316 317
334 333 333 333 334 334 333 333 332 331 331 331 331 331 331 330 330 329 329 330 328 327 327 324 324 326 327 327 327 327 327 326 327 329 330 331 331 330 329 328 327 327 326 326 327 326 326 327 328 328 328 327 324 324 325 325 324 323 324 325 324 324 325 326 324 323 320 317 313 307 305 308 311 310 306 305 304 303 304 307 308 309 310 312 313
334 333 332 333 333 333 332 332 331 331 332 332 332 331 331 330 330 330 329 329 328 327 326 324 324 327 328 328 328 328 328 327 327 328 330 331 331 331 330 329 328 328 327 327 327 327 327 327 328 328 329 328 326 327 327 327 326 324 323 324 325 324 323 325 326 325 323 320 316 313 311 308 308 309 306 302 302 302 303 302 302 305 307 306 308
333 332 332 332 331 331 330 331 332 332 332 332 332 332 331 331 330 329 328 328 326 324 323 323 325 328 329 329 329 328 328 328 328 329 330 331 331 331 331 330 329 328 328 328 328 328 327 328 328 328 329 328 327 327 328 329 329 327 325 324 325 324 322 323 326 326 324 322 320 320 319 313 307 305 302 299 301 301 301 300 300 301 302 302 305
332 331 332 332 331 331 330 330 332 332 332 333 333 332 331 331 330 328 328 328 325 324 324 323 325 327 328 329 329 328 328 328 328 328 329 330 330 331 330 331 330 329 329 329 328 327 328 328 328 329 329 329 329 328 328 329 330 329 328 326 325 326 323 322 324 326 325 325 324 323 322 318 311 306 303 300 300 300 301 301 299 298 300 301 302
331 330 331 331 331 331 330 330 331 331 330 331 332 332 332 332 330 328 329 328 326 326 326 325 326 326 327 328 328 328 328 328 328 328 328 329 329 328 329 329 329 330 329 329 328 328 328 328 328 328 329 329 330 329 328 329 331 331 330 328 327 328 327 324 323 324 325 326 326 325 323 321 316 312 307 303 301 299 301 302 299 298 300 300 301
330 330 330 331 331 330 330 330 331 330 330 330 332 332 332 331 330 330 329 328 327 327 327 327 327 327 327 328 328 328 328 327 327 326 327 328 328 328 328 328 328 329 330 329 329 329 328 328 328 328 328 328 329 329 329 328 329 330 331 330 329 329 328 325 323 323 324 325 327 326 324 324 320 315 312 309 305 301 301 301 299 299 299 300 300
328 329 329 330 330 330 330 330 330 331 331 331 331 331 331 332 330 330 330 329 328 328 328 328 329 329 328 328 327 327 326 327 327 325 324 326 327 328 328 328 328 329 329 330 330 330 329 329 328 328 328 328 328 328 329 329 328 329 330 330 330 331 330 328 325 324 322 323 326 327 326 326 324 319 315 313 311 307 305 303 301 299 299 299 300
326 328 328 328 328 328 329 330 330 331 330 331 331 330 331 331 330 330 329 329 329 329 329 329 329 329 328 329 328 327 326 327 328 326 324 325 325 326 326 327 328 328 329 330 330 330 330 330 330 329 328 329 329 329 328 328 328 328 328 328 329 331 332 330 329 327 323 321 323 326 326 326 326 324 320 317 316 315 312 310 307 304 300 298 299
325 326 327 327 327 327 327 329 330 330 330 330 330 330 331 331 330 330 330 329 329 329 329 329 329 328 328 329 329 329 329 328 327 326 325 325 324 324 323 323 326 327 327 328 328 329 329 330 330 330 330 330 330 330 329 329 329 328 328 327 327 328 330 332 331 330 327 324 323 323 323 324 324 324 323 321 321 321 319 317 315 312 307 302 299
323 323 325 325 327 327 327 328 328 329 329 330 330 330 330 330 330 330 330 329 329 329 329 328 329 328 328 327 326 329 331 328 327 328 326 324 324 324 323 324 325 325 326 327 327 327 328 328 329 329 330 330 330 330 330 330 330 329 329 328 328 327 327 330 331 332 330 328 326 324 324 324 322 322 322 322 322 323 323 322 321 318 315 311 304
322 322 322 324 326 326 327 327 328 329 329 329 329 329 329 329 329 330 329 329 329 328 328 328 328 328 328 328 328 331 332 327 326 329 328 327 327 326 326 326 325 324 325 325 326 327 327 328 328 328 329 329 329 329 329 330 330 330 329 329 329 329 328 327 328 330 331 331 330 328 326 326 325 323 321 320 320 321 322 323 323 322 320 318 315
321 322 322 323 325 325 325 326 327 328 328 327 327 327 328 329 329 329 328 328 328 327 327 327 327 327 327 328 328 329 329 326 327 328 327 328 330 330 329 328 326 324 323 323 324 326 326 326 326 326 327 327 328 328 328 328 329 329 329 329 329 329 329 328 327 327 329 331 332 331 329 329 328 327 323 321 320 320 321 321 321 322 322 322 320
320 321 321 323 325 324 324 325 326 326 325 325 325 326 326 327 328 328 328 328 328 327 327 326 326 326 327 327 327 327 327 327 328 328 328 328 328 328 326 326 328 326 324 324 323 323 323 324 325 326 326 327 327 327 328 328 328 328 328 328 329 329 329 330 329 328 327 329 331 332 332 330 330 330 328 325 323 322 322 322 321 321 322 322 322
320 320 320 323 324 323 323 324 325 325 325 324 324 324 325 325 326 327 328 328 327 328 327 326 326 325 326 327 326 327 326 326 326 326 328 329 327 325 320 319 322 321 323 326 324 323 323 324 324 325 326 327 327 328 328 327 327 328 328 328 328 329 329 329 330 330 328 327 329 331 332 331 331 331 330 328 326 324 324 324 324 323 323 322 322
319 320 321 322 323 322 322 323 324 324 324 323 322 322 323 324 325 326 327 327 326 327 326 326 326 326 326 326 326 327 325 323 324 323 326 328 329 327 320 314 315 316 320 325 325 325 325 326 325 323 325 327 327 327 327 327 327 327 326 326 327 328 328 329 329 330 329 328 328 328 329 330 331 332 331 330 329 327 326 325 325 325 325 325 324
317 318 320 320 319 318 318 320 321 322 322 322 321 320 321 322 324 324 324 323 322 323 323 323 324 325 326 326 326 326 322 318 319 320 321 322 324 323 317 314 316 315 316 320 322 324 325 325 325 323 324 325 325 324 323 325 327 327 327 327 327 327 327 328 328 328 329 329 329 328 327 328 329 330 331 331 330 330 329 328 326 326 327 327 326
317 316 317 316 315 314 312 313 317 319 320 320 319 319 319 319 321 321 319 318 317 318 318 319 321 323 325 325 324 321 317 315 315 316 317 317 320 318 313 313 315 313 313 315 317 321 323 324 324 324 325 325 324 323 323 323 326 328 327 327 327 328 327 328 329 329 328 329 329 329 328 327 327 328 329 329 330 330 329 329 328 329 329 328 328
316 316 315 315 315 313 310 309 311 313 315 316 316 316 317 318 319 318 316 316 316 317 317 317 318 319 319 319 317 315 314 314 314 314 314 314 315 315 312 313 315 313 312 313 313 315 317 318 319 320 322 325 325 325 324 324 326 326 327 328 328 327 328 328 328 328 328 329 329 329 329 329 329 328 328 328 329 329 329 329 329 330 330 330 329
315 316 316 316 315 313 309 309 309 310 309 310 311 312 314 316 317 316 315 315 315 315 316 315 315 315 314 313 313 313 313 313 313 313 313 312 312 312 312 313 314 313 313 312 312 312 311 312 312 312 315 321 325 324 320 320 322 322 324 326 325 323 325 326 327 326 326 327 328 327 328 328 327 328 328 328 329 330 329 329 328 329 330 330 330
313 315 315 315 314 311 309 310 311 310 308 306 307 308 308 310 314 316 316 314 314 314 314 313 313 312 312 312 312 311 310 311 311 312 312 312 311 311 311 312 312 312 312 312 311 311 311 310 309 308 310 314 319 319 315 313 314 315 317 320 320 318 318 320 321 321 321 321 322 324 326 326 326 326 326 327 328 328 328 328 328 328 328 329 329
312 314 314 314 313 310 309 310 311 310 308 305 305 305 304 304 308 312 314 314 313 313 312 312 311 311 311 311 310 308 309 310 311 311 312 311 311 311 310 312 313 311 310 311 310 310 311 310 308 307 308 309 312 313 312 311 311 311 312 313 314 313 312 312 314 314 314 315 316 318 322 324 325 325 325 324 324 324 324 324 324 324 325 326 327
312 313 314 313 310 309 309 309 309 310 309 307 305 304 304 304 304 306 309 313 313 313 312 311 310 308 308 309 308 308 309 310 310 310 310 310 310 310 310 311 313 315 316 316 313 310 309 309 308 307 308 309 309 309 310 310 310 311 311 311 311 311 311 310 310 310 311 312 313 314 316 317 319 319 320 319 319 319 320 321 321 322 322 322 324
312 313 313 312 311 309 309 308 308 309 309 309 307 305 305 305 304 303 306 309 312 312 312 311 309 307 306 307 307 308 309 310 309 309 309 309 309 309 310 309 311 315 319 319 315 311 309 308 308 308 308 308 307 307 307 308 308 309 309 310 310 310 310 310 309 309 310 310 312 313 313 313 313 314 314 315 315 316 317 318 319 320 321 321 322
312 313 313 312 311 311 310 309 310 310 310 310 308 306 305 305 305 305 305 306 309 311 311 311 310 308 307 308 309 309 309 309 309 309 310 309 309 309 310 310 310 311 313 314 313 312 309 308 308 308 307 306 305 304 303 304 306 307 307 308 308 309 309 309 309 309 309 309 309 310 311 311 311 311 312 312 313 314 314 315 315 317 318 319 320
311 312 313 312 310 310 311 311 311 312 312 311 310 308 307 306 305 304 305 305 305 307 309 310 309 307 306 308 309 310 310 309 309 309 309 309 309 310 310 310 310 309 308 310 311 310 308 308 307 306 306 305 304 302 301 303 305 306 306 307 307 307 308 308 308 308 309 309 309 309 309 309 310 310 311 310 311 311 312 313 314 314 315 316 317
312 312 313 313 311 309 309 309 311 312 312 312 311 310 310 309 307 305 305 306 305 305 306 308 309 307 306 307 307 307 308 308 308 309 308 308 309 309 309 308 308 307 307 307 308 308 308 307 306 306 305 303 301 301 300 302 305 305 306 306 306 307 307 308 308 308 308 308 308 309 309 309 310 310 310 310 310 310 311 312 313 314 315 314 315
315 313 312 313 312 310 309 308 309 309 310 310 311 311 311 311 311 309 307 307 307 307 306 307 308 308 308 308 307 306 305 306 307 308 308 308 308 308 307 307 307 306 306 306 306 306 306 306 305 304 303 300 299 300 300 302 304 304 305 305 305 306 306 307 307 307 307 308 308 308 308 308 309 309 309 310 310 309 309 310 311 312 314 315 315
317 316 314 314 314 313 311 310 310 309 309 310 311 312 311 312 312 312 311 310 310 310 309 308 308 308 309 308 308 308 307 305 304 306 307 307 308 307 307 306 306 305 305 305 305 305 305 305 304 302 299 297 297 298 299 300 301 302 303 303 304 304 305 305 306 306 306 306 307 307 307 308 308 308 308 308 309 309 309 309 309 310 312 314 315
318 318 316 316 315 315 315 314 314 313 312 311 312 312 312 311 312 312 312 311 310 311 312 310 309 308 308 308 307 308 308 307 305 304 306 307 307 307 307 306 305 304 303 303 303 303 303 302 301 298 296 295 296 296 296 297 297 298 298 299 300 301 302 303 303 304 304 304 305 306 306 307 307 307 307 307 307 308 308 308 309 309 310 311 313
318 317 317 317 317 317 317 317 318 317 316 314 313 313 313 312 312 312 312 312 311 311 311 312 311 310 309 308 307 307 307 307 306 305 305 307 307 307 307 305 301 300 300 299 299 299 298 297 297 296 295 295 295 296 296 296 296 296 296 296 297 297 298 299 300 300 301 301 302 303 304 305 306 306 306 306 306 306 307 307 308 309 309 310 310
318 317 316 317 317 318 318 318 319 318 318 317 316 315 314 314 313 313 312 313 312 312 311 312 312 312 311 310 309 308 307 307 307 306 305 305 306 306 306 303 299 297 296 296 295 295 294 294 295 295 295 295 295 296 296 296 296 296 296 296 297 297 297 297 297 298 298 298 298 299 301 302 303 304 305 305 305 306 306 306 307 307 307 308 309
319 318 318 317 317 317 319 319 319 319 319 318 317 317 316 316 315 314 314 314 313 313 312 312 312 312 312 311 310 309 309 308 307 307 306 305 305 305 304 301 298 296 295 294 293 293 294 294 295 295 295 295 295 295 296 296 296 297 297 297 297 297 297 297 297 297 297 297 297 297 298 299 300 301 302 303 304 304 305 305 305 305 306 306 306
319 319 319 318 316 317 318 319 319 319 319 319 318 318 318 317 317 316 316 315 314 314 313 313 313 312 311 311 311 310 310 309 308 307 307 306 305 304 303 301 299 298 296 294 293 294 295 295 295 295 295 295 295 295 295 296 296 297 297 297 297 297 296 296 296 296 296 297 297 297 297 298 298 298 299 300 300 301 302 302 303 304 304 303 303
320 320 319 319 318 317 318 319 319 319 319 319 319 319 319 318 318 318 317 317 316 315 314 314 313 313 312 311 311 310 310 310 309 307 307 306 305 304 303 301 299 298 296 295 295 295 296 296 296 296 296 295 295 295 295 295 296 297 297 297 297 297 296 296 296 296 297 297 297 297 297 297 297 297 297 298 298 298 298 299 300 301 301 300 300
320 319 319 319 318 317 318 320 320 320 320 319 319 318 318 318 318 318 318 318 317 316 315 314 314 314 312 312 311 311 310 310 309 308 307 306 305 304 303 301 300 298 297 296 296 296 297 297 297 297 296 296 296 295 295 296 296 297 297 297 297 297 296 296 295 296 297 297 297 297 296 296 296 296 297 297 297 297 297 297 298 298 298 298 299
319 318 317 317 318 318 319 320 320 320 319 319 319 318 317 317 317 318 318 318 318 317 316 315 315 314 313 312 312 311 310 310 309 308 307 306 304 303 303 302 300 299 298 298 298 297 297 297 297 297 296 296 296 296 296 296 296 296 296 296 296 296 296 296 296 296 296 296 296 296 295 295 296 296 296 297 297 297 297 297 297 297 298 298 299
320 319 318 319 320 320 320 320 320 320 320 320 320 320 319 319 318 318 318 318 317 317 316 315 315 315 314 313 312 311 310 309 308 307 306 305 304 303 303 302 301 299 299 299 299 298 298 298 297 297 296 296 296 296 296 296 296 296 296 296 296 296 295 295 295 295 295 295 295 295 295 295 295 296 296 296 296 296 296 296 297 297 298 298 299
318 318 318 319 319 319 319 319 319 320 320 320 320 320 320 319 319 319 318 318 318 317 317 317 316 316 315 314 312 311 310 308 308 306 305 305 304 304 304 302 300 299 299 300 300 299 298 298 297 297 296 296 296 296 296 296 296 296 295 295 295 295 294 294 294 294 295 294 294 294 294 295 295 295 296 296 296 296 296 296 297 297 298 299 299
312 313 315 316 316 317 318 318 319 320 320 320 320 320 320 320 319 319 319 318 318 318 318 317 317 317 316 313 311 310 309 308 307 306 305 305 304 304 303 302 300 300 300 300 300 300 298 298 297 297 296 296 296 296 296 296 295 295 295 295 294 294 293 293 293 293 294 293 293 293 293 294 294 295 295 295 295 295 295 296 297 298 299 299 299
308 309 310 312 313 314 315 315 316 319 319 320 319 319 319 319 319 318 318 318 318 318 318 318 317 317 315 313 311 309 308 306 306 307 306 305 304 304 303 302 301 300 300 300 300 300 299 298 297 297 297 296 296 296 296 295 295 294 294 294 293 293 292 292 292 292 292 292 292 292 293 293 293 294 294 294 294 295 295 295 296 298 298 299 299
307 307 307 308 309 311 312 313 314 315 317 318 318 317 316 316 316 316 317 317 317 317 317 318 317 316 314 312 310 309 308 307 307 307 306 305 304 304 302 301 300 300 300 300 300 300 299 297 297 297 297 296 296 296 295 295 294 293 293 292 292 292 291 291 291 291 291 291 291 292 293 293 293 293 293 294 294 295 295 295 296 297 297 298 298
305 305 306 307 307 307 309 311 312 313 314 316 316 316 315 314 314 315 315 315 315 315 316 315 315 313 312 310 309 308 307 306 306 306 305 304 303 302 301 301 300 300 300 300 299 299 298 297 297 297 296 296 295 294 294 293 292 292 291 291 291 291 291 290 290 291 291 291 291 292 292 292 293 293 293 294 294 294 295 295 295 296 297 297 297
304 304 304 305 305 306 307 308 310 311 313 315 316 316 315 315 314 314 314 314 314 313 312 311 310 309 308 308 307 307 306 306 305 304 303 303 302 301 301 301 300 300 300 299 298 297 297 296 296 295 295 294 293 293 292 292 292 292 291 291 291 291 290 290 290 290 291 291 292 292 292 292 293 293 294 294 294 295 295 295 295 296 297 296 296
304 304 303 303 303 303 304 305 307 309 312 315 316 316 315 314 314 313 313 313 312 312 310 308 307 307 307 306 306 306 306 305 304 303 302 301 301 301 300 300 300 299 298 297 297 296 295 294 294 293 293 293 292 292 292 292 292 292 292 292 292 291 290 290 290 290 290 291 292 292 292 292 293 293 294 294 294 294 295 295 296 296 296 296 295
306 305 304 303 303 303 303 303 305 307 310 314 316 316 315 314 313 313 313 312 310 309 308 307 306 305 305 305 304 304 304 303 302 301 301 300 300 300 299 299 298 298 297 296 295 295 294 294 293 293 293 292 292 292 292 292 292 292 292 292 292 292 291 290 290 290 290 291 292 292 292 292 293 293 294 294 294 294 295 295 295 295 295 295 295
Wind_Speed
9 9 9 9 9 9 9 9 9 8 9 8 8 8 6 5 3 3 3 4 6 5 4 3 4 4 4 2 1 3 5 4 6 7 9 10 9 7 6 6 6 6 6 5 6 8 9 9 9 8 8 7 8 8 7 7 7 5 4 3 2 3 4 4 4 4 4 4 5 6 6 7 7 7 7 7 8 8 8 8 9 10 11 11 12
10 10 10 10 10 10 9 9 8 8 8 8 8 7 6 4 3 2 2 4 4 3 3 3 4 5 6 5 4 5 6 4 6 7 9 10 9 8 7 7 7 6 6 6 6 8 9 9 10 10 9 8 8 8 8 8 7 6 7 6 3 3 3 4 3 4 4 4 4 5 5 6 6 6 6 7 7 7 7 7 8 9 10 10 11
10 11 11 11 10 10 10 9 8 8 8 8 7 7 6 5 4 3 3 3 3 2 2 5 5 5 7 7 6 6 6 5 7 7 9 10 9 8 8 8 7 6 7 6 6 8 9 9 9 10 10 10 9 8 8 9 8 7 7 7 6 3 4 4 3 4 4 3 3 4 5 5 5 5 6 7 7 7 7 7 8 9 9 9 10
11 10 11 11 10 10 10 10 9 8 9 8 8 8 7 7 5 5 4 4 3 2 3 6 5 3 7 7 6 6 5 4 7 9 10 11 10 9 9 8 8 7 7 7 6 8 9 8 7 7 8 9 10 9 8 8 8 8 6 7 7 4 3 4 4 4 3 3 3 3 4 4 5 5 6 7 7 7 7 7 8 9 8 8 9
12 11 11 11 10 10 10 10 8 8 8 8 8 8 8 8 7 6 5 4 3 2 3 4 3 2 4 5 5 5 5 4 6 9 12 13 12 11 10 9 8 8 8 7 7 8 9 9 8 6 5 6 9 10 9 8 8 8 6 7 8 5 3 4 3 3 2 2 2 3 3 4 4 4 5 6 6 7 7 7 7 8 9 8 8
12 13 12 11 10 10 9 9 8 8 8 8 9 8 7 8 7 6 6 4 3 2 3 3 2 2 2 4 4 4 4 4 6 10 12 13 13 12 12 10 10 9 8 7 7 7 8 9 9 7 6 4 6 9 9 8 8 8 8 8 8 7 5 4 3 3 2 3 2 2 3 4 4 4 4 5 6 6 7 7 6 7 8 7 7
12 13 13 12 12 11 9 8 8 9 9 8 9 9 8 8 7 7 6 5 4 4 4 3 2 1 2 3 3 3 2 4 7 11 13 14 13 13 13 12 11 10 9 8 8 7 7 8 8 8 7 4 4 6 7 7 7 8 10 8 8 8 7 6 5 4 3 3 4 3 3 4 4 4 4 4 5 5 6 6 6 6 6 6 8
13 12 12 12 11 10 9 8 9 10 9 9 9 9 8 8 8 7 5 5 5 5 4 4 3 3 3 4 4 3 3 4 7 11 14 14 14 13 13 13 13 11 10 9 9 9 8 8 8 8 8 6 4 5 6 6 6 6 8 9 9 8 8 9 7 5 4 4 4 3 3 4 4 4 3 3 4 4 5 5 5 5 5 6 7
13 12 12 12 11 9 9 9 10 10 10 10 10 9 9 8 7 6 5 5 4 3 2 3 5 4 4 5 6 6 6 6 6 10 13 15 14 13 13 14 14 13 12 11 10 9 9 9 9 8 9 7 5 6 6 7 6 6 7 7 8 8 7 9 8 7 6 5 4 4 4 5 4 3 3 3 3 3 4 4 4 5 5 5 6
10 11 11 11 11 10 10 10 11 10 10 10 10 10 9 8 8 8 7 5 4 2 1 2 4 4 3 4 5 6 7 8 7 7 9 11 12 13 14 14 15 15 14 14 13 11 10 10 10 10 11 10 8 7 7 7 7 8 9 7 6 7 7 8 8 8 7 7 6 4 4 6 6 4 3 3 3 3 3 3 3 4 4 5 6
7 8 8 9 10 9 9 11 12 11 9 8 9 10 9 8 9 9 8 6 5 3 2 2 3 3 2 3 5 5 6 7 8 7 6 6 6 8 10 12 14 16 17 16 15 14 12 11 11 11 12 12 12 10 9 9 8 9 10 8 7 8 8 8 9 10 9 9 8 6 4 4 5 6 4 3 3 3 3 3 3 3 4 5 5
2 3 4 4 5 6 7 9 10 9 7 6 7 9 10 9 9 9 8 7 6 4 3 2 2 3 3 3 4 5 6 6 6 6 4 4 5 4 4 6 9 13 16 17 17 16 15 13 13 12 12 12 12 12 11 10 10 10 10 9 8 8 9 9 8 10 11 10 10 9 6 4 4 5 5 4 4 4 4 4 3 3 3 4 5
4 3 2 1 2 3 5 7 8 7 5 5 6 8 10 10 10 9 8 8 7 5 3 2 3 4 4 4 5 6 6 5 5 6 5 4 3 3 3 3 3 5 8 11 14 16 16 15 14 14 13 13 12 12 13 13 12 12 11 10 9 9 10 10 7 7 10 12 11 10 10 7 4 4 5 5 5 4 4 4 4 4 4 4 4
6 6 5 5 4 2 2 4 5 5 4 5 6 7 9 10 10 9 8 7 6 5 4 4 3 4 3 2 2 4 5 4 4 7 8 6 5 3 1 1 3 3 3 6 9 12 14 14 16 16 15 14 14 14 14 14 14 13 12 12 11 10 11 11 10 6 6 9 11 11 11 10 7 5 5 6 6 5 5 5 4 4 4 4 5
6 6 7 6 5 4 2 2 2 3 5 6 7 7 7 9 10 9 9 8 6 6 6 6 4 4 3 1 0 0 2 2 2 5 9 9 7 5 2 3 3 4 4 5 6 7 10 12 13 15 16 15 16 16 16 16 15 14 14 13 12 12 11 12 13 11 7 6 8 10 11 10 9 8 7 8 7 6 6 6 5 5 5 5 5
6 5 6 6 5 4 3 2 2 3 4 5 5 6 7 7 8 9 9 8 8 8 8 7 6 4 2 1 1 2 0 1 1 3 6 8 8 6 6 6 6 5 5 6 6 8 9 11 12 12 14 14 15 15 16 16 16 16 16 15 14 14 13 13 14 14 13 10 8 9 9 8 8 8 9 10 10 9 8 8 7 6 6 6 6
6 5 5 6 5 4 3 4 4 5 4 2 3 3 4 5 6 7 8 7 7 8 8 7 6 6 4 3 1 1 1 2 1 2 2 4 4 4 6 7 6 5 5 5 7 8 8 8 8 10 11 13 15 15 15 15 16 16 17 17 17 16 16 16 15 16 16 15 13 12 11 10 8 7 9 10 11 11 11 10 9 8 8 8 7
7 7 7 8 7 6 5 6 8 8 7 5 4 3 3 3 3 5 4 3 5 6 6 6 7 7 5 3 2 2 2 0 1 1 1 2 3 4 5 5 5 5 5 5 7 9 9 8 8 9 10 11 13 15 14 14 15 16 17 18 18 18 18 18 18 17 16 17 17 16 15 13 11 10 10 11 11 11 11 11 11 10 10 9 9
7 8 7 8 9 7 6 8 10 11 10 8 7 6 5 4 4 5 5 4 5 6 7 7 7 8 7 4 3 4 3 1 2 1 1 1 2 3 3 1 2 4 5 7 7 8 9 10 10 10 9 10 12 15 15 15 16 18 18 18 18 19 19 19 21 21 19 17 18 17 16 16 15 13 13 13 13 12 12 12 12 12 12 12 11
7 7 6 7 9 7 7 9 10 10 10 10 9 8 7 6 6 6 5 4 4 5 6 6 5 6 8 7 2 2 2 2 2 2 2 2 0 2 4 5 7 7 4 4 6 6 6 8 8 8 7 8 10 12 14 15 16 17 17 17 17 17 17 16 19 21 21 20 18 17 16 16 16 16 16 16 15 14 14 14 14 14 14 14 14
9 8 8 9 10 9 9 9 9 9 8 8 8 8 7 7 8 7 6 5 3 2 3 3 2 2 6 8 5 2 3 4 3 2 3 2 0 1 4 7 12 16 12 5 0 3 4 6 7 6 5 5 5 7 9 10 12 12 12 14 14 14 13 12 13 15 18 20 20 20 19 17 17 17 18 18 17 16 16 17 18 17 16 15 15
10 11 11 12 11 10 9 8 8 8 7 7 7 7 7 7 8 8 9 9 8 7 5 4 2 2 3 5 4 3 4 4 5 4 4 4 3 1 4 5 8 15 20 18 12 6 3 4 6 6 5 4 5 7 8 8 8 8 9 10 11 11 10 9 9 10 12 14 17 19 21 21 20 19 18 18 17 16 16 17 18 19 19 17 17
10 12 12 11 10 9 8 8 9 8 8 7 6 5 6 7 8 9 10 11 11 10 10 9 7 7 6 4 5 6 5 6 7 7 6 5 3 2 4 5 6 11 18 22 21 17 11 7 4 3 4 4 6 6 7 7 7 7 6 7 7 7 7 8 9 10 10 11 12 14 18 21 22 22 20 19 19 17 16 16 17 18 19 19 19
11 11 11 10 8 7 8 10 10 9 8 7 6 5 6 7 8 9 10 10 10 9 10 11 10 11 10 9 8 8 8 8 7 7 7 6 5 3 3 5 5 7 11 16 21 23 22 19 16 13 9 5 5 6 8 8 8 8 7 6 7 6 5 6 8 9 9 9 9 9 11 15 18 19 20 21 22 21 18 18 18 18 19 20 20
11 12 11 9 7 7 9 11 12 11 10 9 8 7 6 6 7 8 9 8 7 7 8 9 9 9 10 9 9 8 9 8 6 6 6 5 6 5 3 4 4 5 8 11 14 17 21 22 21 19 17 13 11 12 14 13 11 10 10 10 10 8 5 4 5 8 10 8 7 5 4 7 9 11 14 17 19 20 18 18 19 19 20 22 22
12 13 12 10 8 8 10 11 11 12 12 11 9 8 7 7 7 7 7 7 7 8 9 9 8 8 8 8 9 9 9 8 7 8 8 8 9 7 4 4 4 5 6 9 12 13 14 16 19 19 18 17 16 15 15 14 13 12 11 10 10 9 8 7 6 8 9 9 9 6 3 4 4 4 7 9 12 14 15 16 18 19 19 21 22
12 13 12 11 9 9 9 10 11 11 11 11 10 9 9 9 8 8 8 7 7 8 9 9 8 8 7 7 9 10 10 9 9 10 10 10 12 11 7 4 3 4 4 6 11 14 12 11 15 18 17 16 16 15 14 13 13 12 10 10 9 9 10 9 8 7 8 8 8 7 5 5 5 5 5 6 8 9 11 13 14 15 16 17 19
12 13 13 12 11 10 10 9 10 10 10 10 9 9 8 9 9 9 9 7 6 8 8 7 8 8 7 7 9 12 12 11 10 10 11 11 11 12 12 8 4 1 3 4 6 11 14 13 14 17 17 15 15 14 13 11 11 10 8 9 8 7 8 9 8 8 8 8 8 7 7 6 7 7 7 8 8 9 9 11 12 13 13 14 14
12 12 13 13 12 12 10 9 9 9 9 8 7 8 8 9 9 9 10 8 7 8 7 6 7 7 7 8 9 11 11 10 10 10 10 11 11 11 13 12 9 4 2 4 3 4 12 15 15 15 16 15 15 13 12 12 11 9 8 9 8 8 8 9 9 9 8 8 7 7 7 8 8 9 10 11 11 11 11 12 13 14 14 14 14
13 12 12 12 13 13 12 11 10 9 9 8 7 7 7 9 9 9 10 9 8 8 6 6 6 6 7 8 8 9 9 8 9 9 9 9 9 10 11 11 11 8 5 3 2 4 9 14 15 15 16 17 16 14 13 12 11 10 9 9 9 8 8 8 9 9 8 8 8 7 7 8 9 9 9 10 11 12 13 13 14 15 15 15 15
14 13 12 11 12 13 14 13 11 10 10 8 8 8 8 9 9 10 9 8 8 8 7 6 7 7 7 7 6 6 6 6 7 7 7 8 7 8 9 9 9 10 7 5 2 5 8 11 13 14 15 17 16 15 13 12 11 11 10 9 9 8 7 7 9 10 11 11 9 9 9 8 8 8 8 9 9 10 10 11 12 14 15 15 15
15 15 14 12 12 13 14 14 13 12 11 10 9 8 8 8 8 9 9 8 8 8 8 7 7 7 6 6 6 5 4 3 4 6 7 8 7 7 8 8 9 9 8 7 4 3 6 9 11 13 15 17 16 16 15 13 12 12 12 12 11 9 8 9 9 10 10 10 10 10 9 9 9 9 9 9 10 10 10 10 11 11 13 14 14
16 16 16 14 13 12 13 13 14 13 12 11 10 9 8 7 7 7 7 7 7 7 7 7 7 6 5 5 5 5 4 3 2 3 5 6 6 7 7 7 9 9 9 8 6 3 4 7 11 13 15 16 16 16 16 15 14 13 12 12 12 12 11 11 11 10 10 10 10 9 9 9 10 10 10 10 11 11 11 12 12 11 11 12 13
19 18 17 16 14 13 12 12 12 13 13 12 11 11 10 9 8 7 7 7 7 6 6 7 6 5 3 3 4 3 3 3 2 2 3 4 4 5 7 7 8 9 10 10 8 5 5 8 10 13 16 16 17 17 17 17 16 15 14 13 13 13 13 12 12 12 13 12 12 11 11 10 10 11 11 11 11 12 12 12 12 12 12 11 11
23 22 20 18 16 14 13 11 11 12 12 13 13 12 11 10 10 9 8 8 8 7 7 7 7 5 4 3 2 2 1 1 2 2 1 2 3 4 6 7 8 9 9 11 11 9 9 9 10 14 17 17 17 17 17 17 16 16 16 15 15 14 14 14 14 14 14 14 14 13 12 11 11 11 11 11 11 11 11 11 11 11 11 11 10
24 23 21 20 19 17 15 13 12 11 12 13 14 14 13 12 11 10 10 9 9 9 8 8 8 7 6 5 4 3 2 1 1 0 1 1 2 3 5 6 7 9 9 10 10 10 11 11 11 13 16 16 16 17 18 17 17 17 18 17 17 17 16 15 16 16 16 15 15 14 13 13 13 12 12 12 12 11 11 11 10 10 10 10 9
24 21 18 17 18 19 17 15 13 13 13 13 15 15 14 14 13 12 11 11 10 10 11 10 10 9 9 7 6 6 5 4 3 3 2 1 2 3 4 6 7 8 9 9 10 10 11 13 13 14 16 18 17 18 19 20 20 20 19 18 18 18 19 18 17 17 18 18 18 17 17 16 15 15 14 14 14 13 12 12 11 11 11 11 10
23 22 19 20 22 24 21 17 15 14 14 14 16 17 16 15 15 15 14 13 12 12 12 13 13 12 12 11 9 8 8 7 6 5 4 3 2 3 3 4 6 8 8 8 9 10 10 12 13 16 19 20 20 20 20 21 21 21 22 23 21 21 23 24 23 22 21 20 20 19 18 19 19 18 18 18 17 16 15 14 14 13 13 13 13
22 22 22 23 26 27 25 21 19 18 17 17 18 19 18 18 18 18 18 17 16 15 15 14 15 15 14 13 13 12 11 10 8 6 5 4 3 3 3 4 5 7 7 7 8 8 10 12 14 17 18 19 20 20 20 21 20 21 24 26 27 27 28 28 28 27 24 22 21 20 20 20 20 20 20 20 20 20 19 18 18 17 17 17 17
20 18 18 21 23 23 22 22 21 20 19 18 18 18 18 18 19 20 21 21 20 19 18 17 17 17 17 16 15 15 14 13 11 8 7 6 5 4 3 3 5 6 5 5 6 6 8 11 14 16 18 19 21 22 23 24 23 23 23 23 25 29 30 30 29 27 25 24 24 24 24 24 24 24 23 22 21 20 21 20 20 20 19 19 20
19 16 17 21 22 21 20 19 18 17 17 17 18 18 18 19 20 20 21 23 24 23 21 20 20 20 19 18 18 17 16 15 13 10 8 7 6 5 4 3 4 5 4 4 4 4 7 10 12 15 17 18 20 22 23 23 22 22 23 22 23 26 29 31 30 23 21 23 28 30 30 30 30 30 27 25 24 23 22 21 20 19 19 18 19
20 19 22 24 22 20 19 18 17 17 17 18 18 18 18 19 18 18 18 21 23 24 24 23 22 22 22 21 20 19 18 16 14 12 10 8 7 6 5 4 4 4 3 2 2 3 6 9 10 12 14 15 16 17 18 19 19 21 23 24 25 26 27 28 28 24 21 23 29 33 34 33 31 31 30 28 26 26 25 24 22 19 17 16 16
18 21 23 23 19 17 16 16 16 16 15 14 13 14 14 15 16 16 16 17 18 21 23 24 24 25 24 24 23 21 20 18 16 13 10 8 6 5 5 6 5 4 3 3 2 2 5 7 7 8 9 12 14 14 14 16 18 20 22 23 24 26 24 21 21 23 25 26 30 34 36 34 30 29 29 28 27 27 26 25 22 18 16 15 17
13 14 14 14 12 11 10 10 10 9 8 8 8 9 11 12 13 14 15 16 17 18 20 22 24 25 26 26 25 23 21 19 17 13 10 8 6 5 7 7 7 6 5 4 3 3 4 5 6 7 8 9 12 13 14 15 17 19 21 22 22 22 22 20 19 23 29 31 31 32 35 33 27 25 27 27 26 26 25 22 19 16 15 15 16
4 3 3 3 3 3 4 4 5 5 5 5 6 7 7 8 8 10 11 14 16 17 19 21 22 23 25 26 26 24 22 19 16 12 9 7 6 7 8 8 8 6 6 5 5 5 6 6 7 8 8 9 11 13 13 14 17 19 21 23 24 23 22 22 24 28 33 32 29 28 31 30 25 22 24 27 27 25 22 19 15 13 14 14 14
3 3 2 2 1 1 2 3 3 4 5 6 6 5 5 5 5 6 7 9 11 13 15 17 19 21 22 24 26 25 22 18 15 11 9 8 8 8 8 8 7 7 7 7 7 7 8 8 9 9 10 10 12 13 15 15 17 19 21 23 25 25 26 26 27 31 32 29 24 21 24 27 25 22 23 26 26 22 20 17 13 12 14 14 14
2 2 3 3 2 2 2 3 4 5 6 6 6 4 4 5 5 6 7 9 11 11 13 14 16 18 20 22 24 23 21 18 14 11 9 9 9 9 8 8 8 9 9 9 9 9 10 10 11 11 11 12 14 15 17 18 19 20 21 22 23 24 26 26 27 28 26 23 20 16 19 24 26 26 25 24 22 21 20 17 14 13 14 15 16
2 3 3 4 4 4 5 5 5 6 6 7 6 6 6 6 7 7 7 8 9 9 10 11 12 14 16 18 19 20 18 15 12 10 9 9 9 9 9 10 10 10 10 10 9 10 10 11 12 12 13 15 16 17 18 19 19 18 18 18 19 20 20 20 22 23 21 21 20 17 20 23 23 24 26 24 23 23 21 18 14 12 13 15 17
4 5 5 6 7 7 8 8 8 8 8 8 8 8 8 7 7 7 7 6 5 5 5 6 7 9 11 13 15 16 14 12 11 11 10 10 10 11 11 11 11 10 9 8 9 10 11 12 12 14 15 16 17 17 16 16 15 14 14 15 15 16 17 16 15 17 21 23 19 15 16 19 18 20 25 26 24 23 20 18 13 10 12 16 19
7 8 7 8 9 11 11 11 11 11 10 11 11 9 9 9 8 7 6 4 3 4 5 7 8 10 11 12 12 11 11 10 11 11 10 10 11 11 10 10 9 9 9 9 10 11 11 13 13 14 15 14 15 15 15 14 12 11 12 15 16 17 18 16 15 18 22 18 12 12 16 18 18 19 21 24 23 21 18 13 9 10 16 21 21
7 8 7 8 10 13 15 15 14 12 11 12 13 11 9 8 7 5 4 3 5 7 9 10 11 11 11 10 9 9 9 9 9 9 8 8 8 7 7 7 8 9 10 11 12 13 14 15 15 15 15 14 15 15 14 14 12 11 12 15 16 18 20 19 19 18 14 9 10 17 20 20 19 18 17 17 16 14 12 10 12 17 21 22 22
Wind_Direction
234 235 231 228 231 228 223 220 219 219 214 212 212 211 208 206 206 209 203 194 186 188 205 219 226 224 215 220 244 299 298 225 189 193 198 201 204 202 195 195 206 211 207 204 199 188 188 194 190 194 201 196 192 190 184 183 187 191 205 207 152 136 121 111 113 109 103 102 105 108 111 111 108 106 106 107 106 104 103 100 98 99 100 101 99
238 239 234 228 231 229 227 225 225 227 226 224 219 219 224 231 238 237 219 202 196 210 245 269 259 231 224 237 247 278 288 226 195 199 197 200 206 209 202 197 203 207 208 213 203 186 191 198 194 195 202 203 204 204 195 191 192 186 201 223 222 194 163 141 135 132 123 117 115 118 119 118 119 117 113 113 112 109 111 110 105 105 106 106 106
236 237 232 227 229 230 230 231 236 240 239 236 232 235 239 248 258 252 248 238 232 243 297 318 302 243 235 249 257 274 281 230 207 207 202 200 206 214 210 202 205 210 215 220 203 187 194 199 197 200 204 206 204 209 204 194 201 197 195 216 229 227 195 179 165 155 147 139 133 130 131 129 129 127 122 121 120 115 111 112 113 111 105 103 104
233 231 229 229 229 230 234 238 244 247 245 243 242 247 244 246 257 247 239 246 244 244 322 331 324 260 241 251 262 270 272 237 219 218 212 205 207 215 214 206 207 214 222 223 204 193 200 202 204 205 204 209 205 207 211 205 208 204 200 218 226 231 203 188 183 175 165 161 156 145 142 142 140 137 133 128 125 121 114 114 121 120 110 104 106
233 229 229 231 228 227 234 238 241 242 245 245 242 246 243 242 248 239 232 240 241 248 315 322 316 266 233 235 246 254 257 235 221 225 221 215 214 216 217 213 210 214 221 223 210 200 204 205 211 216 209 216 211 207 211 213 213 205 209 224 224 231 221 194 187 189 187 186 180 165 160 154 151 146 140 138 133 130 128 122 123 125 119 112 111
236 234 231 229 225 222 223 227 234 238 242 243 240 241 238 234 232 229 234 240 235 249 291 297 286 254 203 210 230 240 245 227 214 221 226 224 222 221 220 217 215 216 219 221 220 212 209 208 215 220 219 227 214 206 208 211 215 208 213 232 234 229 225 222 216 212 219 219 217 195 177 165 163 163 152 149 145 138 136 130 126 131 128 122 122
240 237 235 233 229 222 215 218 228 232 236 236 235 238 231 220 217 222 231 233 235 253 271 266 246 214 165 181 213 218 218 211 208 215 224 229 229 229 227 223 220 222 222 221 224 224 216 212 219 222 223 233 215 205 209 211 217 214 210 228 246 234 221 230 237 232 237 233 233 230 201 186 179 181 171 159 156 148 141 139 137 138 137 138 139
241 239 239 242 240 231 222 221 225 225 231 232 231 233 223 211 210 214 222 228 240 258 269 250 216 178 151 147 149 154 163 180 199 210 218 227 232 235 236 234 230 229 232 231 229 231 229 222 223 225 227 241 231 206 209 216 225 224 214 219 236 239 225 222 230 237 243 238 234 246 243 220 202 194 191 181 172 163 153 148 146 146 150 153 149
245 246 248 250 250 247 239 234 233 226 226 227 225 222 215 211 206 199 211 234 245 253 261 229 196 170 154 145 138 138 139 148 180 202 212 222 228 233 239 242 239 238 242 243 240 236 236 233 230 231 233 243 244 220 213 220 228 229 231 231 230 238 234 223 228 237 238 234 235 252 266 254 238 219 214 211 195 184 174 159 152 155 159 162 158
252 253 256 254 252 252 246 243 239 225 219 219 218 216 208 205 205 201 212 227 232 231 212 186 182 177 166 161 155 149 139 134 143 168 195 212 219 224 232 237 239 242 245 246 245 243 242 241 237 235 238 244 251 243 225 222 228 231 237 242 230 228 232 224 224 233 236 232 233 253 273 260 250 243 236 227 219 211 196 176 164 165 167 172 171
248 247 253 252 250 248 243 247 244 231 225 218 217 221 209 198 204 210 214 215 219 226 198 174 186 200 200 193 187 180 171 157 148 149 158 169 183 206 220 228 232 236 243 246 245 246 247 247 244 241 240 244 249 250 242 229 228 233 236 240 233 222 228 233 224 225 233 235 234 242 261 258 247 242 245 242 231 225 216 205 194 189 179 180 183
212 233 250 253 248 246 243 247 248 243 238 224 222 229 218 203 205 211 214 212 217 223 211 208 211 205 207 211 205 200 198 186 174 173 168 151 139 138 171 205 223 228 236 243 245 247 250 252 252 250 247 248 249 249 248 240 230 229 232 241 245 228 228 244 238 223 224 229 234 237 241 248 246 236 239 248 242 230 224 222 222 220 208 197 194
100 105 101 105 184 230 247 244 246 249 239 222 229 234 225 215 209 205 209 211 213 220 219 207 197 200 205 208 212 212 210 203 190 187 183 176 166 132 114 143 187 214 226 234 241 245 249 253 254 254 253 253 255 254 252 250 242 235 229 233 244 239 231 240 251 236 222 219 225 234 239 242 245 234 234 242 246 241 231 229 233 230 229 224 211
106 110 110 105 117 150 211 229 240 244 217 205 221 230 228 225 220 212 210 213 216 221 221 211 194 186 186 192 217 217 207 204 211 207 199 191 185 168 127 169 163 157 203 220 232 241 247 253 254 255 255 255 256 257 256 256 253 248 240 235 236 238 234 234 244 253 228 212 215 226 237 241 243 236 229 230 235 243 243 239 239 238 239 238 230
110 116 122 120 119 123 131 172 216 218 206 208 214 220 224 226 227 223 218 215 213 217 222 226 207 162 127 120 190 186 192 188 185 207 209 210 211 193 206 274 220 176 196 206 210 227 238 247 251 253 255 256 257 257 257 258 258 255 253 249 244 241 237 234 241 249 240 221 214 219 230 239 238 233 227 223 225 234 244 248 250 247 244 242 239
124 119 122 128 130 126 123 135 165 186 200 211 214 217 223 227 232 231 227 218 212 215 221 224 211 180 133 102 67 67 107 257 118 166 209 223 232 219 218 252 247 211 206 209 212 221 233 242 248 251 253 256 258 258 255 254 257 258 257 257 254 250 244 237 239 243 243 240 231 225 231 238 234 229 228 226 227 230 236 243 249 251 249 249 245
141 144 136 135 139 142 132 124 136 150 153 165 191 210 218 224 231 229 229 224 215 214 214 217 215 202 174 131 78 92 218 283 70 118 193 199 208 204 201 220 234 225 211 216 222 223 227 239 252 258 259 262 261 257 253 250 252 256 258 258 257 254 250 244 241 242 244 242 238 235 236 243 243 233 228 230 233 234 235 238 241 244 246 248 250
130 141 139 134 137 136 129 124 126 128 123 118 128 143 162 182 201 210 220 228 217 211 208 217 219 210 190 150 124 136 163 268 107 114 158 170 176 181 187 208 225 228 233 240 237 232 234 239 253 261 257 259 262 259 253 252 254 256 259 262 263 261 256 251 246 244 246 242 239 237 235 241 247 245 239 235 236 236 236 238 238 241 243 244 247
124 131 136 134 132 128 129 134 127 119 115 112 108 106 112 130 158 187 210 220 212 206 203 210 215 211 203 179 126 115 113 120 152 137 128 162 170 143 137 183 239 253 269 263 250 246 247 244 250 258 251 251 260 263 262 261 265 268 270 272 272 272 268 261 253 249 248 246 242 240 238 237 238 242 245 240 239 241 241 242 241 242 245 245 241
124 131 142 137 130 124 126 135 132 125 124 120 111 103 103 109 126 154 182 200 213 209 197 197 209 214 204 194 180 133 115 91 115 127 132 146 51 80 84 75 64 40 8 274 255 252 242 233 242 253 253 254 257 264 268 267 270 275 281 286 284 281 279 269 259 252 250 249 246 243 246 246 239 241 246 244 239 239 243 246 246 246 245 242 238
118 129 138 133 129 127 124 129 131 128 130 128 118 109 101 100 107 116 130 135 132 143 153 166 199 224 198 192 190 149 94 77 78 80 94 107 94 3 40 62 56 49 57 79 176 263 251 241 247 260 260 257 268 282 285 278 276 276 282 291 291 290 292 284 272 261 254 251 249 246 249 250 246 246 250 249 244 244 246 245 244 247 244 238 235
121 126 132 131 128 127 126 129 133 131 130 128 119 108 97 95 102 104 104 100 94 95 93 94 110 127 159 177 162 117 82 70 67 62 69 75 85 46 21 41 44 47 58 65 65 58 0 295 278 291 295 287 300 307 309 309 302 290 283 288 289 286 292 299 293 283 271 260 252 248 248 250 251 252 253 251 250 252 252 248 246 248 246 241 237
138 132 132 131 127 121 121 126 131 132 130 126 119 106 94 94 102 105 102 95 89 89 86 82 87 97 102 105 99 91 80 72 63 61 71 72 73 36 16 45 58 52 58 60 61 62 56 46 31 5 346 327 323 319 323 333 337 335 321 311 306 295 302 323 316 300 292 279 264 254 249 249 251 253 255 255 255 254 253 257 257 250 247 246 241
155 149 142 137 131 121 118 117 118 120 120 118 110 103 105 106 107 107 105 101 98 95 90 85 84 88 95 94 91 87 80 74 65 63 72 78 89 84 29 51 69 61 62 64 63 62 63 66 66 64 58 37 16 25 33 33 32 32 31 24 13 353 337 347 345 332 323 304 287 275 257 252 253 253 256 259 258 255 253 260 262 254 250 250 244
163 162 156 152 147 134 125 115 108 106 104 103 98 96 109 120 119 113 107 104 105 106 100 94 87 87 93 95 91 85 77 69 61 61 63 68 76 73 59 68 80 78 66 64 67 66 63 62 61 61 61 64 71 71 68 65 63 58 53 51 43 24 356 341 344 342 344 345 339 327 283 267 263 257 260 262 259 257 257 262 265 262 259 256 251
170 167 164 164 161 147 133 121 111 106 100 98 98 96 102 115 127 125 114 109 108 107 105 100 94 91 93 95 87 78 72 67 63 62 61 62 57 46 57 82 72 74 72 65 66 63 57 55 53 52 56 62 70 74 71 69 68 64 57 57 54 39 22 10 353 339 341 355 7 10 347 307 298 280 276 276 270 268 268 269 273 274 271 267 264
179 172 170 173 171 157 145 130 122 116 107 104 104 105 104 106 117 125 121 119 113 107 105 100 95 90 88 88 83 79 78 78 77 71 65 64 58 47 51 83 68 38 46 63 61 51 44 47 46 44 48 55 58 59 59 62 64 61 58 57 55 47 37 27 15 1 354 360 9 12 355 330 323 314 301 292 287 283 281 282 283 283 282 280 277
187 179 177 180 178 167 159 146 136 129 120 115 113 114 114 110 113 117 122 130 126 115 111 103 92 86 85 88 88 87 86 85 84 78 69 65 64 55 50 61 85 46 11 31 47 43 37 37 37 37 41 45 44 44 45 49 49 45 43 40 34 27 19 11 4 359 355 355 358 0 350 334 318 307 298 291 289 288 285 287 289 290 290 289 285
195 189 186 187 186 179 173 163 154 146 136 131 129 126 123 122 121 117 122 134 136 127 120 110 95 83 85 94 95 91 89 87 81 76 70 64 64 62 54 51 61 88 75 21 358 25 32 29 28 27 29 32 30 28 29 30 30 26 23 21 17 12 5 1 358 351 344 339 337 337 330 321 313 305 299 295 291 289 286 284 284 284 285 285 285
203 199 195 195 193 190 188 181 173 167 160 154 152 151 144 138 135 127 126 136 142 139 134 121 104 87 84 91 91 88 87 85 77 70 67 63 59 57 54 50 54 67 89 65 9 11 23 25 28 22 15 17 16 14 20 24 22 21 17 14 12 9 4 2 3 0 356 349 339 334 330 327 326 324 318 312 306 301 297 292 287 283 280 279 278
208 206 203 203 200 196 195 193 187 183 182 179 174 170 165 159 152 144 140 144 148 148 149 143 126 113 100 91 84 81 80 74 67 60 57 57 53 52 52 54 58 58 63 80 55 3 13 21 25 18 9 10 8 6 15 23 24 25 23 19 16 10 6 8 9 11 15 16 12 4 358 354 349 345 342 337 329 321 314 306 297 288 281 277 276
210 208 206 206 203 197 197 198 197 195 194 194 192 188 181 175 170 163 157 157 158 154 157 159 149 140 125 105 96 88 76 69 64 60 58 57 58 64 61 57 61 54 48 66 74 10 16 18 14 10 5 6 7 6 10 15 20 22 21 19 19 17 21 24 20 17 20 24 25 21 11 4 357 350 347 344 341 336 331 325 318 305 289 277 272
215 212 209 208 205 200 196 197 201 203 204 202 200 200 198 192 187 182 178 174 171 163 164 168 163 159 146 121 116 102 76 69 73 67 66 66 63 64 59 48 47 42 33 42 54 51 26 11 6 5 3 5 8 6 4 4 6 8 9 9 11 14 18 22 21 18 16 13 11 8 2 356 351 346 343 341 340 339 336 334 333 328 315 292 272
222 218 214 210 207 203 199 200 205 210 213 212 207 206 206 205 202 200 202 198 191 184 180 180 176 178 179 150 139 124 87 72 78 79 70 70 60 52 49 38 32 30 22 21 25 27 16 8 3 359 360 6 7 3 1 359 356 353 353 354 357 360 1 3 5 6 8 7 2 357 353 351 347 343 341 339 338 337 336 336 336 335 332 320 295
228 225 223 218 212 207 204 205 210 216 221 221 219 217 215 213 211 211 217 219 217 212 201 196 197 199 201 200 189 165 121 68 69 80 83 73 53 43 43 32 25 25 18 12 13 12 7 4 2 360 0 3 5 1 356 353 350 346 346 346 344 343 343 344 346 347 351 355 355 353 349 346 343 341 340 338 336 333 332 332 333 335 335 331 322
233 231 230 227 222 218 215 216 219 223 226 227 228 227 225 225 223 222 224 225 229 231 225 218 217 215 214 220 224 219 231 263 274 26 36 38 31 31 30 24 21 19 13 9 9 8 3 358 359 2 3 4 5 2 354 348 346 344 344 344 340 336 335 336 336 336 337 337 338 338 337 337 336 334 334 333 330 329 328 327 328 331 333 332 329
236 238 246 250 244 234 230 231 230 233 234 236 239 239 237 236 235 235 235 233 235 238 237 235 233 232 231 231 231 227 232 240 236 239 265 304 337 357 7 11 12 7 4 3 3 4 4 3 360 357 358 1 3 2 358 353 348 344 342 341 339 337 334 333 333 335 333 330 328 327 325 325 325 325 326 326 324 322 320 319 319 320 322 322 322
235 235 244 255 253 244 241 240 240 242 242 244 246 247 247 246 245 245 243 242 241 241 242 241 239 240 240 240 243 237 234 235 231 230 236 250 282 312 334 348 353 353 352 356 360 2 7 10 5 358 357 359 359 0 1 360 355 350 346 340 337 338 337 335 334 336 335 332 329 328 326 324 323 322 321 320 320 317 314 312 310 311 311 311 311
238 238 240 242 243 244 245 245 245 246 246 248 252 252 254 255 254 253 250 249 247 243 244 244 241 242 241 241 245 245 243 241 238 237 237 240 261 280 297 322 337 342 343 347 352 359 8 11 7 1 358 358 358 358 358 360 359 357 355 348 340 339 341 340 337 336 335 333 331 330 329 327 324 322 320 319 318 316 313 311 307 305 306 307 307
238 239 239 238 240 247 253 251 249 250 249 249 253 256 260 262 262 260 258 255 252 247 245 245 244 243 242 241 243 246 246 242 238 240 238 237 248 251 260 307 332 339 344 347 352 3 9 9 6 2 357 355 356 354 353 358 358 355 356 352 342 338 339 338 337 336 335 333 333 330 329 328 326 325 324 323 322 321 318 314 311 307 305 305 306
241 237 237 244 251 256 256 252 248 248 249 250 253 259 264 265 265 265 262 258 254 251 249 248 246 244 242 242 242 243 243 239 235 234 229 229 237 238 246 289 325 336 342 345 352 3 8 6 4 359 353 353 355 352 351 355 354 346 344 344 339 337 335 333 333 337 336 333 332 329 328 329 329 328 328 328 328 329 327 322 319 314 308 305 305
248 240 235 242 254 257 255 255 254 254 256 260 263 266 266 266 266 265 263 261 257 254 252 250 249 247 244 243 243 242 239 235 230 227 223 224 228 238 262 289 307 320 321 312 321 343 357 360 358 354 349 346 347 348 345 343 341 335 335 337 335 333 334 333 330 331 332 331 332 328 325 328 330 328 328 329 330 332 332 330 327 320 314 312 310
243 234 226 231 243 249 252 257 258 259 263 267 270 269 266 266 266 264 262 261 259 256 255 252 251 250 247 243 240 238 233 227 223 219 218 218 224 246 280 297 304 309 304 280 269 306 336 342 341 341 337 331 333 337 334 331 331 330 330 331 329 329 332 332 324 321 323 326 329 325 320 322 327 326 325 327 329 333 335 334 330 323 318 318 317
232 227 222 227 237 244 252 259 261 265 272 282 284 279 275 271 269 266 262 259 259 258 258 256 255 254 249 243 237 233 228 221 213 208 208 214 230 262 286 297 303 309 310 297 280 286 305 313 315 319 320 319 323 326 325 324 324 324 324 324 323 324 322 317 310 308 313 319 323 319 314 316 321 322 321 322 326 331 334 334 333 329 324 322 322
185 184 193 210 231 259 282 287 283 278 276 283 290 290 291 289 281 274 270 267 265 262 261 261 259 257 252 242 233 227 221 213 205 205 211 221 239 262 279 290 297 303 302 292 279 278 287 295 303 310 312 311 313 316 317 318 318 318 319 318 318 317 312 307 304 304 309 316 319 315 308 310 317 319 315 317 322 327 330 331 333 334 328 325 325
108 92 80 61 38 341 317 306 289 273 262 266 279 289 298 306 304 296 290 284 278 270 264 262 262 260 253 241 229 220 210 202 203 212 220 228 242 257 270 282 289 291 290 285 278 275 277 285 293 300 303 304 306 310 310 311 312 313 313 313 313 311 307 304 303 305 309 315 319 313 302 306 315 314 309 314 321 325 328 325 322 322 321 320 321
63 42 36 21 5 341 318 300 287 281 273 269 272 282 299 307 308 307 302 292 285 276 266 262 260 257 250 239 228 218 208 203 209 221 228 235 245 253 263 272 277 281 282 281 278 274 275 282 290 297 302 302 304 305 305 306 309 309 308 307 306 306 306 306 307 309 312 318 323 313 296 302 313 311 309 318 324 323 325 323 317 311 306 308 315
12 3 358 345 338 334 323 310 299 293 288 281 274 275 287 298 304 310 308 296 289 282 270 262 258 251 245 236 224 213 205 204 211 221 226 231 240 249 258 264 269 273 275 274 272 273 279 287 294 299 300 300 302 303 304 307 309 310 309 306 308 311 312 310 310 313 317 322 326 314 293 298 314 314 313 321 323 319 321 323 319 306 296 305 316
340 344 345 343 336 330 326 322 313 303 294 287 281 278 283 290 299 311 314 303 288 275 256 240 231 223 217 212 206 201 200 202 206 212 219 227 238 249 254 256 260 263 265 270 275 282 289 294 297 299 299 300 301 302 305 308 310 314 314 313 320 323 318 312 310 312 316 321 329 327 303 300 317 319 314 319 322 319 319 321 315 299 300 315 324
314 323 331 341 340 333 329 324 316 308 297 285 276 273 277 282 289 303 311 296 253 225 203 186 185 186 184 186 192 198 200 202 205 210 220 233 242 246 248 251 255 260 264 273 281 288 293 296 297 297 297 299 299 300 302 303 304 308 309 311 317 316 310 306 303 306 313 317 332 341 318 307 316 318 314 318 320 317 319 319 307 301 312 320 324
288 297 307 322 331 332 331 325 320 315 303 285 272 264 262 269 274 281 278 236 189 183 182 174 172 176 177 177 182 191 198 202 208 217 227 238 244 246 252 261 270 276 279 286 292 295 297 298 299 299 300 301 302 302 303 301 299 299 297 300 306 306 303 300 298 303 310 306 316 325 316 307 311 316 317 320 316 314 320 314 302 307 313 317 320